Starlink 2006

decayed
NORAD ID: 47601 Int'l Des: 2021-009 Owner: SPXS Country: US Constellation: starlink
LEOCIRCULAR
グループ

Starlink 2006について

説明を読み込み中...

高度履歴

Altitude vs Time

uPlot chart will show altitude changes over time

軌道要素

1 47601U 21009BF 25052.97393356 .10262300 12401-4 67623-3 0 9992
2 47601 53.0335 230.0642 0006485 279.7789 223.3470 16.40749226224862
Epoch: Feb 21, 2025 • Age: 7157 hours

現在のステータス

Position data unavailable
打ち上げ日 Feb 4, 2021
運用期間 4.8 years
落下予定日 Feb 22, 2025
タイプ internet

技術仕様

分類 Payload
質量 260.00 kg
乾燥質量 248.00 kg
総質量 260.00 kg
長さ 0.20 m
直径 2.80 m
スパン 9.00 m
形状 Box + pan
製造者 SPXS
バスタイプ Starlink
フェーズステータス Unknown Transfer Status
所有者/国 SPXS/US

大規模コンステレーション

Loading constellations...